STARLINK-34426 (64345 NORAD) Tracking and Keplerian Element Data

This shows tracking and keplerian element data for the satellite.

Feedback or suggestion? Click here.




ElementValue
Catalog64345
NameSTARLINK-34426
Epoch Orbit2876
Epoch Day354.1080243
Epoch Year2025
RAAN235.0163
Inclination70
Eccentricity0.000279
Argument of Perigee270.8522
Mean Anonmoly89.2318
Mean Motion14.98332711
Decay Rate9.77E-06
L11 64345U 25126B 25354.10802430 .00000977 00000+0 89694-4 0 9997
L22 64345 70.0000 235.0163 0002790 270.8522 89.2318 14.98332711 28768



Live tracking and technical data element details for STARLINK-34426 (NORAD 64345). STARLINK-34426 can be tracked NOW for your location showing map with azimuth and elevation plus other details from your city location.







IsCatalogInMostPopularTable: catalog: 64345, numindb: 5
Update: records affected: 1



GetName: 64345 STARLINK-34426

Hit Count: updated at: Sat, 11 Apr 2026 21:09:15 GMT